sat.trackr.live / text

‹ back to catalog

STARLINK-5428

NORAD 54800 · 2022-175AU

PAYLOAD ACTIVE UNKNOWN

§ Identity

Operator
Country
US
Launch date
2022-12-17
Launch site
AFETR
Launch vehicle
Mass (kg)
RCS (m²)

Purposes: comms

External: N2YO · Heavens-Above · Gunter

§ Orbital elements

Epoch: 2026-09-20T12:32:34.131264Z

Period
94.01 min
Inclination
53.1597°
Eccentricity
0.0001554
Mean motion
15.31711378 rev/d
Perigee alt
469.6 km
Apogee alt
471.8 km
Semi-major
6,848.8 km
B*
4.0208e-5
RAAN
231.7077°
Arg perigee
83.6227°
Mean anomaly
276.4951°
Rev number
20,957

§ Raw data

STARLINK-54281 54800U 22175AU  26263.52261726  .00000883  00000+0  40208-4 0  99902 54800  53.1597 231.7077 0001554  83.6227 276.4951 15.31711378209573

JSON: /api/v1/satellites/54800 · /tle

For live sub-satellite position, see the globe view (requires WebGL).

§ Visibility from observer

Set your observer location to see the next 7 days of passes ≥ 10°. The values pass through the URL so the page stays shareable.

No JS? Fill the form by hand. The geolocation button needs JavaScript.